Wind_Speed
3 3 3 3 3 3 4 5 5 5 6 6 6 6 5 5 4 4 3 3 2 3 2 2 1 1 2 2 3 5 6 7 7 7 8 9 9 9 9 9 9 10 10
3 3 2 2 3 3 4 4 4 5 5 6 6 5 5 5 5 4 4 3 3 3 3 2 1 1 2 2 4 4 6 7 8 8 9 10 10 10 10 9 9 10 11
3 3 2 2 2 3 3 3 4 4 5 5 5 5 5 5 5 5 4 3 3 3 3 2 1 1 1 2 3 4 5 6 8 8 9 10 11 11 11 10 10 11 11
4 3 2 2 2 2 2 3 4 4 4 5 5 5 5 5 5 5 5 4 3 3 2 2 1 1 1 2 3 4 5 6 7 8 9 10 11 12 12 11 11 11 11
4 3 2 1 1 1 2 2 3 4 4 5 5 5 5 5 5 5 5 4 3 3 2 2 2 2 2 2 3 3 4 6 7 8 9 9 10 12 12 12 12 12 12
4 3 2 1 1 0 1 2 3 3 4 4 5 5 5 6 6 5 5 4 3 3 2 2 2 3 3 3 3 3 4 5 7 8 9 9 10 11 12 12 12 12 12
5 3 3 2 1 0 1 2 3 3 4 5 5 5 5 6 6 6 5 4 4 3 3 3 3 3 3 3 3 3 4 5 6 8 8 8 9 10 11 12 12 12 12
5 4 3 3 2 1 0 1 2 3 4 4 5 5 5 6 6 6 5 5 4 4 3 3 3 3 3 3 3 4 4 5 6 7 8 8 9 10 11 11 12 11 12
6 5 4 3 2 1 1 1 2 3 4 5 5 5 5 5 6 6 6 5 5 4 4 3 3 3 3 3 3 4 4 5 6 7 8 8 9 9 10 11 11 11 12
6 5 4 4 2 1 1 1 2 3 4 4 5 5 5 5 5 6 6 5 5 4 4 4 3 3 3 3 3 3 4 5 6 7 7 8 8 9 10 10 10 11 11
6 5 4 4 2 2 1 1 2 3 4 4 5 5 4 4 5 5 6 5 5 4 4 4 3 3 2 3 3 2 3 4 5 6 7 7 8 8 9 10 10 10 10
5 5 5 4 2 2 1 1 2 3 4 4 4 5 4 5 5 5 5 5 5 4 4 4 4 3 2 2 2 2 3 3 4 5 6 6 7 8 9 10 10 10 10
5 5 5 4 3 2 1 1 1 2 4 4 5 5 4 5 5 5 5 5 5 5 4 4 3 3 2 1 1 2 3 3 3 4 5 5 6 7 8 10 10 10 10
6 5 5 4 3 3 2 1 1 2 3 4 5 5 5 4 5 5 5 5 5 4 4 4 3 3 2 1 0 1 2 3 3 3 4 4 5 6 8 9 10 10 10
6 5 5 4 4 3 2 1 1 2 3 4 4 5 5 5 5 5 5 5 5 4 4 4 3 2 2 1 1 1 2 3 3 3 4 5 5 6 8 9 10 10 9
7 6 5 4 3 3 2 1 1 2 2 3 4 4 5 5 6 6 5 5 4 4 3 3 3 2 1 1 2 2 3 3 4 4 5 5 6 6 7 8 9 9 9
8 7 6 5 4 3 2 1 0 1 2 3 3 4 4 5 5 6 5 5 4 4 4 3 3 2 1 1 2 2 3 3 3 4 5 5 5 6 7 8 8 9 9
8 7 7 6 4 3 2 2 1 1 2 3 3 4 4 4 5 5 5 5 4 4 3 3 3 2 2 2 2 2 3 3 4 4 5 5 5 6 7 8 8 8 8
8 8 7 6 5 3 3 2 1 1 2 3 3 4 4 4 5 5 5 5 4 4 4 3 3 3 2 2 2 2 3 3 4 4 4 5 5 6 7 7 8 8 8
9 9 7 6 5 4 3 3 2 1 2 2 3 4 4 4 5 5 5 5 5 4 4 4 3 3 2 2 2 2 3 3 3 4 4 4 5 5 6 7 7 7 7
9 8 7 6 6 5 4 3 2 1 1 2 2 3 3 4 4 5 5 5 5 5 4 4 3 3 3 2 2 2 2 3 3 4 4 4 5 5 6 6 6 7 7
9 8 7 7 6 5 4 4 3 2 2 2 2 2 2 3 4 4 5 5 4 4 4 4 4 3 4 3 3 2 2 2 2 3 4 5 5 5 6 5 6 6 6
9 8 8 7 7 6 5 5 4 3 3 3 2 2 2 2 3 4 4 4 4 4 4 4 4 3 3 3 2 2 2 2 2 2 3 4 5 5 5 5 5 5 6
10 9 8 7 7 6 6 6 5 4 4 3 3 2 2 2 3 3 4 4 4 4 3 3 3 3 2 2 2 2 1 1 1 1 2 3 4 4 4 4 5 5 6
10 9 8 8 7 7 7 6 5 5 4 4 4 3 3 2 3 3 4 4 4 4 3 2 2 2 2 1 1 1 1 1 1 0 1 3 3 3 4 4 4 5 5
11 10 9 9 8 8 7 7 6 6 5 5 4 3 3 3 3 3 4 4 4 4 4 3 2 2 2 1 2 1 1 1 1 1 1 2 3 3 4 5 5 5 5
Wind_Direction
103 99 95 73 65 62 65 53 48 38 34 33 35 34 25 22 18 12 6 358 350 341 334 325 294 278 257 238 227 219 216 214 215 212 212 214 214 214 212 211 209 206 204
124 114 103 80 68 64 57 45 36 35 31 31 31 30 27 23 16 11 359 346 339 339 335 326 309 296 265 239 225 220 221 216 216 217 214 214 215 215 215 212 210 207 207
145 133 109 97 71 60 52 38 21 34 34 31 29 28 26 22 14 7 0 355 344 337 329 314 281 288 272 240 225 224 221 218 218 218 215 214 214 214 212 210 211 209 208
164 156 130 100 64 52 40 25 21 29 25 20 22 22 19 17 13 6 5 1 348 339 332 316 277 271 262 236 228 228 223 222 217 216 214 212 213 214 213 211 210 209 208
173 169 157 142 84 57 26 11 10 14 13 13 13 13 11 8 4 3 5 0 352 339 325 306 280 268 264 243 231 230 227 219 216 214 213 212 213 214 214 213 211 211 210
181 185 192 185 185 0 6 5 11 11 13 12 10 9 6 4 0 356 355 350 342 334 323 302 285 275 263 246 228 228 226 218 215 213 213 212 211 212 213 213 213 213 213
190 186 182 168 172 248 327 353 6 15 14 11 7 2 360 360 355 352 351 347 342 337 329 310 291 281 258 253 239 229 224 216 215 211 211 212 212 211 213 214 215 215 214
187 181 184 178 182 188 80 25 21 15 12 9 5 3 358 356 355 351 349 344 339 336 331 318 301 286 263 253 245 234 221 213 210 207 212 214 212 211 212 216 217 217 214
183 180 177 178 181 165 100 46 22 14 10 7 1 357 359 1 2 0 355 348 342 338 336 330 311 290 264 253 247 233 224 217 212 211 215 215 210 211 212 213 216 216 208
187 185 182 182 185 162 131 61 19 13 6 2 358 355 358 4 5 4 0 355 351 348 343 336 320 296 268 255 246 233 228 222 218 216 218 213 212 210 210 210 213 214 209
189 185 187 187 189 163 132 52 8 6 3 1 359 357 0 5 6 6 2 0 1 356 350 341 334 318 283 262 248 238 230 221 215 214 214 214 212 209 209 208 209 211 208
184 185 188 189 185 171 143 67 7 5 4 5 4 0 2 5 5 2 0 2 6 4 359 351 345 338 319 269 241 224 219 210 204 203 202 206 207 205 205 204 204 206 205
186 184 181 178 177 166 139 96 14 8 6 6 6 4 1 3 4 1 359 359 0 0 359 355 352 358 353 319 237 215 206 198 190 188 188 194 199 201 203 203 201 202 204
188 187 182 181 175 162 147 117 33 13 6 1 4 6 6 4 3 360 360 359 2 6 9 8 3 8 11 9 193 193 196 193 184 182 178 180 185 190 194 196 197 197 198
194 190 184 180 174 162 139 106 38 17 6 3 4 5 7 7 4 0 1 1 4 10 14 14 8 14 28 49 98 138 165 175 178 180 171 173 175 183 186 189 193 193 192
198 198 187 179 176 171 156 137 51 21 5 6 6 7 9 8 8 10 11 8 7 11 11 10 8 18 54 79 111 132 149 162 173 180 174 169 171 176 177 181 185 186 189
199 198 193 188 187 183 180 192 203 5 360 2 8 8 7 5 5 7 9 12 14 15 16 22 31 47 77 96 116 134 146 159 168 174 172 171 171 175 182 183 185 188 190
200 198 198 202 206 204 209 221 234 332 348 356 4 7 6 6 7 11 13 15 20 24 27 36 46 64 91 111 125 132 142 157 164 163 166 171 176 181 180 181 187 192 194
200 201 200 205 210 213 221 228 237 298 337 355 3 7 11 15 14 14 18 22 30 33 35 44 52 66 82 103 126 139 144 153 159 164 169 173 175 178 180 184 188 193 192
203 203 204 209 213 216 218 223 232 274 326 346 358 7 18 22 19 21 24 29 35 38 41 46 55 68 79 92 113 130 141 154 167 168 169 170 175 179 183 188 189 192 191
206 206 208 211 213 216 219 226 229 253 302 333 357 6 20 27 28 28 27 31 39 43 45 48 57 68 74 81 101 119 127 140 159 172 176 178 179 181 181 182 185 187 194
204 207 207 212 219 225 229 231 227 245 279 308 332 348 7 21 27 27 26 31 38 43 46 47 52 64 71 77 88 102 108 123 156 175 181 184 184 186 185 187 191 196 202
208 211 213 216 222 231 234 231 230 246 267 285 297 314 331 354 15 23 25 29 31 32 38 40 41 53 63 68 72 71 76 95 107 155 178 187 191 195 193 196 200 208 212
213 214 217 221 229 234 237 234 236 247 254 266 281 290 303 328 348 359 6 11 12 14 18 21 26 33 40 40 39 39 46 66 84 115 171 184 192 198 198 204 213 222 224
218 218 221 228 232 235 242 237 238 246 252 261 271 275 283 303 320 334 345 352 354 357 353 351 358 1 1 7 9 19 22 18 5 309 193 201 203 208 213 219 224 229 232
222 224 229 231 235 239 246 241 240 245 250 255 263 267 277 291 300 313 322 331 335 335 334 334 331 327 325 327 324 332 344 341 322 277 224 218 220 226 231 236 240 242 246
Height
5899 5898 5898 5898 5897 5897 5896 5896 5895 5895 5894 5893 5892 5891 5890 5890 5889 5888 5887 5886 5885 5885 5884 5883 5883 5882 5883 5882 5882 5882 5882 5883 5883 5884 5884 5885 5886 5887 5887 5888 5889 5890 5891
5898 5898 5898 5898 5897 5897 5897 5896 5896 5895 5894 5893 5892 5891 5890 5889 5888 5887 5886 5885 5885 5884 5883 5883 5882 5882 5882 5881 5881 5881 5881 5881 5882 5883 5883 5884 5885 5886 5887 5887 5888 5889 5891
5898 5898 5898 5897 5897 5897 5897 5896 5895 5895 5894 5893 5892 5891 5890 5889 5888 5887 5885 5885 5884 5883 5883 5882 5881 5881 5881 5880 5880 5880 5880 5880 5881 5881 5882 5883 5883 5884 5886 5886 5888 5889 5890
5898 5898 5897 5897 5897 5897 5897 5896 5895 5894 5894 5893 5892 5891 5890 5888 5887 5886 5885 5884 5883 5882 5882 5881 5881 5880 5880 5879 5879 5879 5879 5879 5879 5880 5880 5881 5882 5883 5884 5886 5887 5888 5889
5897 5898 5897 5897 5897 5897 5897 5896 5895 5894 5894 5893 5892 5891 5889 5888 5887 5886 5885 5884 5883 5882 5881 5880 5880 5879 5879 5878 5878 5878 5878 5878 5878 5878 5879 5880 5881 5882 5883 5884 5885 5886 5888
5897 5897 5897 5897 5897 5897 5897 5896 5895 5894 5893 5892 5891 5890 5889 5888 5887 5886 5884 5883 5882 5881 5880 5879 5879 5878 5878 5877 5877 5877 5877 5876 5877 5877 5878 5878 5879 5880 5882 5883 5884 5885 5886
5897 5897 5897 5897 5897 5897 5896 5896 5895 5894 5893 5892 5891 5890 5889 5888 5886 5885 5884 5882 5881 5880 5879 5878 5878 5877 5877 5876 5876 5876 5875 5875 5875 5876 5876 5877 5878 5879 5880 5881 5882 5884 5885
5896 5896 5896 5896 5896 5896 5896 5896 5895 5894 5893 5892 5891 5890 5888 5887 5886 5885 5883 5882 5881 5879 5878 5878 5877 5876 5876 5875 5875 5875 5875 5874 5874 5875 5875 5876 5877 5878 5879 5880 5881 5882 5883
5895 5895 5896 5896 5896 5896 5896 5895 5895 5894 5893 5892 5891 5889 5888 5887 5885 5884 5883 5881 5880 5879 5878 5877 5876 5875 5875 5874 5874 5874 5873 5873 5873 5874 5874 5875 5875 5877 5877 5878 5880 5881 5882
5894 5895 5895 5895 5896 5895 5895 5895 5895 5894 5893 5892 5890 5889 5888 5886 5885 5884 5882 5881 5879 5878 5877 5876 5875 5874 5873 5873 5873 5872 5872 5872 5872 5873 5873 5874 5874 5875 5876 5877 5879 5880 5881
5894 5894 5895 5895 5895 5895 5895 5895 5894 5894 5892 5891 5890 5889 5888 5886 5885 5883 5882 5881 5879 5878 5876 5875 5874 5873 5873 5872 5872 5871 5871 5871 5871 5872 5872 5872 5873 5874 5875 5876 5877 5878 5880
5893 5894 5894 5895 5895 5895 5895 5895 5894 5893 5892 5891 5890 5889 5887 5886 5884 5883 5882 5880 5879 5877 5876 5875 5874 5873 5872 5871 5871 5870 5870 5870 5871 5871 5871 5871 5872 5873 5874 5875 5876 5877 5879
5893 5894 5894 5895 5895 5895 5895 5894 5894 5893 5892 5891 5890 5889 5887 5886 5884 5883 5881 5880 5878 5877 5876 5874 5873 5872 5871 5870 5870 5870 5870 5870 5870 5870 5871 5871 5871 5872 5873 5874 5875 5876 5878
5892 5893 5894 5894 5894 5894 5894 5894 5894 5893 5892 5891 5890 5888 5887 5886 5884 5883 5881 5879 5878 5876 5875 5874 5873 5872 5871 5870 5870 5869 5869 5870 5870 5870 5870 5871 5871 5871 5872 5873 5874 5876 5877
5892 5893 5894 5894 5894 5894 5894 5894 5893 5893 5892 5891 5890 5888 5887 5886 5884 5882 5881 5879 5878 5876 5875 5874 5873 5872 5871 5870 5870 5869 5869 5870 5870 5870 5870 5871 5871 5871 5872 5873 5874 5875 5876
5892 5893 5893 5894 5894 5894 5894 5894 5893 5893 5892 5891 5889 5888 5887 5885 5884 5882 5880 5879 5877 5876 5875 5874 5873 5872 5871 5870 5870 5869 5869 5869 5870 5870 5870 5871 5871 5871 5872 5873 5874 5875 5876
5891 5892 5893 5893 5893 5894 5894 5893 5893 5892 5892 5891 5889 5888 5887 5885 5884 5882 5880 5879 5877 5876 5875 5874 5873 5872 5871 5871 5870 5870 5870 5870 5870 5870 5870 5871 5871 5872 5872 5873 5874 5875 5876
5891 5892 5892 5893 5893 5893 5893 5893 5892 5892 5891 5890 5889 5888 5887 5885 5884 5882 5880 5879 5877 5876 5875 5874 5873 5872 5871 5871 5870 5870 5870 5870 5870 5870 5870 5871 5871 5872 5872 5873 5874 5875 5876
5890 5891 5892 5892 5892 5892 5892 5892 5892 5892 5891 5890 5889 5888 5887 5885 5884 5882 5881 5879 5877 5876 5875 5874 5873 5872 5872 5871 5871 5870 5870 5871 5871 5871 5871 5871 5871 5872 5872 5873 5873 5874 5875
5889 5890 5891 5891 5892 5892 5892 5892 5892 5891 5891 5890 5889 5888 5886 5885 5884 5882 5881 5879 5878 5876 5875 5874 5873 5873 5872 5872 5872 5871 5871 5871 5871 5871 5871 5871 5872 5872 5872 5873 5873 5874 5875
5888 5889 5890 5890 5891 5891 5891 5891 5891 5891 5890 5890 5888 5888 5887 5885 5884 5883 5881 5880 5878 5877 5876 5875 5874 5873 5873 5873 5872 5872 5872 5871 5871 5872 5872 5872 5872 5872 5873 5873 5874 5875 5875
5886 5888 5888 5889 5890 5890 5890 5890 5890 5890 5890 5889 5888 5887 5886 5885 5884 5883 5882 5880 5879 5878 5876 5875 5875 5874 5874 5873 5873 5873 5873 5873 5872 5872 5872 5872 5872 5873 5873 5873 5874 5874 5875
5885 5886 5887 5888 5889 5889 5889 5889 5890 5890 5889 5889 5888 5887 5886 5885 5884 5883 5882 5881 5879 5878 5877 5876 5875 5875 5874 5874 5873 5873 5873 5873 5873 5873 5872 5872 5873 5873 5873 5873 5874 5874 5874
5884 5885 5886 5887 5888 5888 5888 5889 5889 5889 5888 5888 5887 5886 5886 5885 5884 5883 5882 5881 5880 5878 5877 5876 5876 5875 5875 5874 5874 5874 5874 5873 5873 5873 5873 5873 5873 5873 5873 5873 5873 5873 5874
5883 5884 5885 5886 5886 5887 5887 5888 5888 5888 5887 5887 5886 5886 5885 5884 5883 5882 5882 5881 5880 5879 5878 5877 5876 5875 5875 5875 5874 5874 5874 5873 5873 5873 5873 5873 5873 5873 5873 5873 5873 5873 5873
5881 5882 5884 5884 5885 5886 5886 5886 5886 5886 5886 5886 5886 5885 5884 5884 5883 5882 5881 5880 5879 5878 5877 5877 5876 5875 5875 5875 5874 5874 5874 5874 5873 5873 5873 5873 5873 5873 5872 5872 5872 5872 5872